Flag for Germany Weather past 2 weeks in Kornwestheim, Baden-Württemberg, Germany

54 °F


Feels Like: 54 °F
Forecast: 57 / 71 °F
Wind: 2 mph from North

Location: Stuttgart-Echterdingen

Current Time: Oct 5, 2015 at 11:39:09 AM

Latest Report: Oct 5, 2015 at 11:20 AM

Visibility: 10 mi

Pressure: 30.01 "Hg

Humidity: 94%

Dew point: 52 °F

Location of KornwestheimLocation

Historic Weather in Kornwestheim — Graph


Kornwestheim temperature yesterday

Maximum temperature yesterday: 57 °F (at 2:20 PM)
Minimum temperature yesterday: 46 °F (at 10:50 PM)
Average temperature yesterday: 53 °F

Past Weeks' High & Low Weather Summary

High72 °F (Oct 3, 3:50 PM)100% (Sep 21, 2:20 AM)30.51 "Hg (Sep 21, 2:20 AM)
Low39 °F (Sep 21, 5:50 AM)32% (Sep 30, 3:50 PM)29.65 "Hg (Sep 22, 7:20 PM)
Average54 °F71%30.17 "Hg
* Reported Sep 20 10:20 AM — Oct 5 10:20 AM, Kornwestheim, Weather by CustomWeather, © 2015

Note: Actual official high and low records may vary slightly from our data, if they occured in-between our weather recording intervals... More about our weather records


Kornwestheim weather history for previous 24 hours

Time TempWeatherWind HumidityBarometerVisibility
10:20 AM
Mon, Oct 5
50 °FPartly sunny.2 mph100%30.04 "HgN/A
9:50 AM48 °FPartly sunny.1 mph100%30.04 "HgN/A
9:20 AM46 °FPartly sunny.2 mph100%30.04 "Hg4 mi
8:50 AM45 °FFog.1 mph100%30.04 "Hg0 mi
8:20 AM45 °FFog.1 mph100%30.01 "Hg0 mi
7:50 AM45 °FSleet. Light fog.1 mph100%30.01 "HgN/A
7:20 AM43 °FLight fog.2 mph100%30.01 "HgN/A
6:50 AM43 °FClear.2 mph100%30.01 "Hg10 mi
5:50 AM45 °FFog.2 mph100%30.04 "HgN/A
5:20 AM45 °FFog.2 mph100%30.04 "HgN/A
4:50 AM45 °FFog.1 mph100%30.04 "HgN/A
4:20 AM43 °FFog.1 mph100%30.01 "Hg4 mi
3:50 AM45 °FQuite cool.2 mph100%30.01 "Hg4 mi
3:20 AM45 °FFog.2 mph100%30.01 "Hg2 mi
2:50 AM45 °FPassing clouds.3 mph100%30.04 "Hg1 mi
2:20 AM45 °FPassing clouds.2 mph100%30.04 "Hg0 mi
1:50 AM45 °FPartly cloudy.1 mph100%30.04 "Hg0 mi
1:20 AM45 °FFog.3 mph100%30.04 "Hg1 mi
12:50 AM43 °FFog.3 mph100%30.04 "Hg0 mi
12:20 AM46 °FFog.1 mph93%30.04 "Hg0 mi
11:50 PM
Sun, Oct 4
46 °FSleet. Overcast.1 mph100%30.04 "Hg5 mi
11:20 PM46 °FLight fog.No wind100%30.04 "Hg6 mi
10:50 PM46 °FLight fog.No wind100%30.07 "HgN/A
10:20 PM48 °FFog.1 mph100%30.07 "HgN/A
9:50 PM50 °FFog.2 mph100%30.07 "HgN/A
9:20 PM50 °FFog.No wind100%30.07 "HgN/A
8:50 PM50 °FFog.1 mph100%30.07 "HgN/A
8:20 PM50 °FClear.5 mph100%30.04 "Hg10 mi
7:50 PM52 °FSunny.2 mph94%30.07 "Hg10 mi
7:20 PM54 °FPassing clouds.3 mph94%30.07 "HgN/A
6:50 PM54 °FPassing clouds.5 mph94%30.07 "HgN/A
6:20 PM54 °FPassing clouds.6 mph94%30.07 "HgN/A
5:50 PM55 °FScattered clouds.6 mph94%30.07 "HgN/A
5:20 PM57 °FBroken clouds.7 mph88%30.07 "HgN/A
4:50 PM57 °FBroken clouds.5 mph88%30.07 "HgN/A
4:20 PM57 °FPartly sunny.6 mph88%30.07 "HgN/A
3:50 PM57 °FPartly sunny.3 mph88%30.07 "HgN/A
3:20 PM57 °FPartly sunny.3 mph88%30.07 "HgN/A
2:50 PM57 °FPartly sunny.2 mph82%30.09 "HgN/A
2:20 PM57 °FPartly sunny.3 mph88%30.09 "HgN/A
1:50 PM55 °FBroken clouds.1 mph94%30.09 "HgN/A
1:20 PM55 °FBroken clouds.1 mph88%30.09 "HgN/A
12:50 PM55 °FLight rain. Broken clouds.3 mph88%30.09 "HgN/A
12:20 PM54 °FLight rain. Partly sunny.5 mph94%30.09 "HgN/A
11:50 AM54 °FLight rain. Partly sunny.3 mph94%30.09 "HgN/A
11:20 AM54 °FPartly sunny.3 mph94%30.09 "HgN/A
Weather by CustomWeather, © 2015

See weather overviewHow to use our weather pages